KJ6WEG Weather Reports


Display with metric or nautical units.
time (UTC)temp
F
wind
direction
speed
MPH
gust
MPH
rain 1hr
in
rain 24hr
in
rain mn
in
humidity
%
barometer
mb
20260510114617 53 162 4.0 12.0 0.00 0.00 0.00 94 1014.9
20260510114055 53 160 4.0 13.0 0.00 0.00 0.00 94 1014.9
20260510113555 53 157 6.0 13.0 0.00 0.00 0.00 94 1014.9
20260510113059 53 155 5.0 13.0 0.00 0.00 0.00 94 1014.9
20260510112555 53 193 6.0 11.0 0.00 0.00 0.00 94 1015.0
20260510112056 53 163 5.0 11.0 0.00 0.00 0.00 94 1015.0
20260510111555 53 176 4.0 12.0 0.00 0.00 0.00 94 1014.9
20260510111055 53 170 6.0 12.0 0.00 0.00 0.00 94 1015.0
20260510110554 53 187 4.0 12.0 0.00 0.00 0.00 94 1015.0
20260510105556 53 180 6.0 13.0 0.00 0.00 0.00 94 1015.0
20260510105056 53 145 4.0 13.0 0.00 0.00 0.00 94 1015.0
20260510104559 53 158 7.0 13.0 0.00 0.00 0.00 94 1015.0
20260510104057 53 225 5.0 13.0 0.00 0.00 0.00 94 1015.1
20260510103555 53 169 5.0 12.0 0.00 0.00 0.00 94 1015.0
20260510103057 53 150 6.0 12.0 0.00 0.00 0.00 94 1015.1
20260510102556 53 153 5.0 12.0 0.00 0.00 0.00 94 1015.0
20260510102056 53 138 5.0 12.0 0.00 0.00 0.00 94 1015.1
20260510101604 53 159 5.0 12.0 0.00 0.00 0.00 94 1015.1
20260510101056 53 161 5.0 12.0 0.00 0.00 0.00 94 1015.1
20260510100556 53 180 4.0 12.0 0.00 0.00 0.00 94 1015.1
20260510100110 53 167 3.0 11.0 0.00 0.00 0.00 94 1015.1
20260510095556 53 178 4.0 10.0 0.00 0.00 0.00 94 1015.2
20260510095055 53 174 6.0 11.0 0.00 0.00 0.00 94 1015.2
20260510094557 53 163 3.0 12.0 0.00 0.00 0.00 94 1015.1
20260510094056 53 234 4.0 13.0 0.00 0.00 0.00 94 1015.2
20260510093555 53 180 6.0 13.0 0.00 0.00 0.00 93 1015.2
20260510093058 53 175 6.0 12.0 0.00 0.00 0.00 93 1015.2
20260510092555 53 153 5.0 11.0 0.00 0.00 0.00 93 1015.2
20260510092056 53 201 5.0 11.0 0.00 0.00 0.00 93 1015.1
20260510091553 53 169 4.0 11.0 0.00 0.00 0.00 93 1015.1
20260510091054 53 180 7.0 11.0 0.00 0.00 0.00 93 1015.2
20260510090553 53 178 5.0 11.0 0.00 0.00 0.00 93 1015.1
20260510090054 53 166 5.0 11.0 0.00 0.00 0.00 93 1015.2
20260510085554 53 188 5.0 12.0 0.00 0.00 0.00 93 1015.2
20260510085056 53 177 6.0 12.0 0.00 0.00 0.00 93 1015.2
20260510084609 53 160 4.0 12.0 0.00 0.00 0.00 92 1015.3
20260510084054 53 246 3.0 12.0 0.00 0.00 0.00 92 1015.4
20260510083551 53 215 2.0 9.0 0.00 0.00 0.00 93 1015.3
20260510083055 53 142 3.0 13.0 0.00 0.00 0.00 92 1015.4
20260510082550 53 189 4.0 13.0 0.00 0.00 0.00 92 1015.3
20260510082054 53 150 4.0 10.0 0.00 0.00 0.00 92 1015.3
20260510081556 53 360 4.0 10.0 0.00 0.00 0.00 92 1015.3
20260510081051 53 151 4.0 10.0 0.00 0.00 0.00 92 1015.1
20260510080553 53 232 4.0 9.0 0.00 0.00 0.00 92 1015.2
20260510075550 53 156 3.0 14.0 0.00 0.00 0.00 92 1015.3
20260510075053 53 202 5.0 13.0 0.00 0.00 0.00 92 1015.3
20260510074557 54 160 3.0 10.0 0.00 0.00 0.00 92 1015.4
20260510074054 54 151 4.0 11.0 0.00 0.00 0.00 92 1015.4
20260510073554 54 171 5.0 12.0 0.00 0.00 0.00 92 1015.5
20260510073058 54 152 5.0 12.0 0.00 0.00 0.00 92 1015.5
20260510072551 54 170 4.0 12.0 0.00 0.00 0.00 92 1015.5
20260510072054 54 175 5.0 12.0 0.00 0.00 0.00 92 1015.5
20260510071556 54 184 3.0 9.0 0.00 0.00 0.00 92 1015.4
20260510071054 54 221 3.0 9.0 0.00 0.00 0.00 92 1015.5
20260510070552 54 176 3.0 9.0 0.00 0.00 0.00 92 1015.5
20260510070103 54 219 2.0 9.0 0.00 0.00 0.00 91 1015.4
20260510065553 54 180 4.0 11.0 0.00 0.00 0.00 91 1015.4
20260510065054 54 209 4.0 12.0 0.00 0.00 0.00 92 1015.4
20260510064556 54 149 3.0 12.0 0.00 0.00 0.00 92 1015.4
20260510064053 54 202 3.0 10.0 0.00 0.00 0.00 92 1015.4
20260510063555 54 191 3.0 9.0 0.00 0.00 0.00 92 1015.5
20260510063057 54 190 4.0 14.0 0.00 0.00 0.00 91 1015.4
20260510062553 54 238 4.0 16.0 0.00 0.00 0.00 91 1015.3
20260510062053 54 157 8.0 16.0 0.00 0.00 0.00 91 1015.4
20260510061552 54 193 6.0 12.0 0.00 0.00 0.00 91 1015.4
20260510061055 54 205 5.0 14.0 0.00 0.00 0.00 91 1015.3
20260510060611 54 161 7.0 14.0 0.00 0.00 0.00 90 1015.3
20260510060100 54 178 4.0 12.0 0.00 0.00 0.00 90 1015.4
20260510055554 54 162 6.0 12.0 0.00 0.00 0.00 90 1015.4
20260510055056 55 174 2.0 11.0 0.00 0.00 0.00 90 1015.4
20260510054601 55 215 5.0 12.0 0.00 0.00 0.00 90 1015.4
20260510054051 55 178 6.0 12.0 0.00 0.00 0.00 90 1015.4
20260510053554 55 184 6.0 12.0 0.00 0.00 0.00 89 1015.4
20260510053100 55 167 4.0 11.0 0.00 0.00 0.00 89 1015.5
20260510052554 55 165 5.0 11.0 0.00 0.00 0.00 89 1015.5
20260510052054 55 181 5.0 11.0 0.00 0.00 0.00 89 1015.4
20260510051605 55 129 5.0 11.0 0.00 0.00 0.00 89 1015.3
20260510051053 55 157 5.0 11.0 0.00 0.00 0.00 89 1015.4
20260510050558 55 168 5.0 10.0 0.00 0.00 0.00 89 1015.5
20260510050108 55 182 6.0 10.0 0.00 0.00 0.00 89 1015.4
20260510045551 55 164 5.0 10.0 0.00 0.00 0.00 89 1015.4
20260510045055 55 184 5.0 12.0 0.00 0.00 0.00 89 1015.4
20260510044556 55 157 4.0 12.0 0.00 0.00 0.00 89 1015.4
20260510044054 55 145 5.0 12.0 0.00 0.00 0.00 89 1015.2
20260510043554 55 144 4.0 11.0 0.00 0.00 0.00 88 1015.2
20260510043059 55 164 6.0 11.0 0.00 0.00 0.00 88 1015.2
20260510042552 56 179 5.0 11.0 0.00 0.00 0.00 88 1015.1
20260510042054 56 148 5.0 11.0 0.00 0.00 0.00 88 1015.1
20260510041555 56 134 5.0 10.0 0.00 0.00 0.00 88 1015.1
20260510041054 56 163 5.0 10.0 0.00 0.00 0.00 87 1015.0
20260510040554 56 163 4.0 10.0 0.00 0.00 0.00 87 1015.0
20260510040110 56 106 4.0 9.0 0.00 0.00 0.00 87 1014.9
20260510035554 56 165 4.0 9.0 0.00 0.00 0.00 87 1014.8
20260510035051 57 141 3.0 7.0 0.00 0.00 0.00 87 1014.7
20260510034554 56 163 1.0 4.0 0.00 0.00 0.00 88 1014.5
20260510034054 56 0 0.0 6.0 0.00 0.00 0.00 88 1014.6
20260510033554 56 195 2.0 7.0 0.00 0.00 0.00 87 1014.6
20260510033105 57 211 1.0 7.0 0.00 0.00 0.00 87 1014.7
20260510032553 57 194 1.0 8.0 0.00 0.00 0.00 87 1014.5
20260510032055 57 237 3.0 8.0 0.00 0.00 0.00 87 1014.5
20260510031603 57 261 1.0 7.0 0.00 0.00 0.00 86 1014.5
20260510031054 57 213 3.0 7.0 0.00 0.00 0.00 86 1014.4
20260510030554 57 200 0.0 5.0 0.00 0.00 0.00 86 1014.4
20260510030100 58 229 2.0 5.0 0.00 0.00 0.00 85 1014.4
20260510025554 58 223 2.0 8.0 0.00 0.00 0.00 85 1014.4
20260510025056 58 201 3.0 8.0 0.00 0.00 0.00 84 1014.3
20260510024555 59 209 1.0 6.0 0.00 0.00 0.00 84 1014.4
20260510024054 59 242 2.0 6.0 0.00 0.00 0.00 83 1014.4
20260510023551 60 234 2.0 6.0 0.00 0.00 0.00 83 1014.2
20260510023055 60 208 1.0 8.0 0.00 0.00 0.00 83 1014.1
20260510022554 60 217 3.0 8.0 0.00 0.00 0.00 82 1014.1
20260510022051 60 234 3.0 8.0 0.00 0.00 0.00 81 1014.1
20260510021641 61 229 2.0 9.0 0.00 0.00 0.00 81 1014.1
20260510021050 61 360 1.0 9.0 0.00 0.00 0.00 81 1014.2
20260510020554 61 360 2.0 8.0 0.00 0.00 0.00 81 1014.2
20260510020105 61 267 3.0 8.0 0.00 0.00 0.00 80 1014.1
20260510015556 61 360 3.0 8.0 0.00 0.00 0.00 79 1014.1
20260510015053 62 218 2.0 8.0 0.00 0.00 0.00 79 1014.2
20260510014601 62 360 1.0 9.0 0.00 0.00 0.00 80 1014.1
20260510014052 62 0 2.0 9.0 0.00 0.00 0.00 79 1014.1
20260510013552 62 236 1.0 11.0 0.00 0.00 0.00 79 1014.2
20260510013107 62 170 2.0 11.0 0.00 0.00 0.00 79 1014.2
20260510012551 62 234 3.0 10.0 0.00 0.00 0.00 79 1014.2
20260510012054 62 198 2.0 10.0 0.00 0.00 0.00 79 1014.2
20260510011556 63 245 3.0 10.0 0.00 0.00 0.00 78 1014.1
20260510011051 63 168 1.0 8.0 0.00 0.00 0.00 78 1014.1
20260510010551 64 252 2.0 8.0 0.00 0.00 0.00 77 1014.0
20260510010100 64 203 2.0 7.0 0.00 0.00 0.00 77 1014.1
20260510005551 64 266 0.0 6.0 0.00 0.00 0.00 77 1014.0
20260510005054 64 0 2.0 6.0 0.00 0.00 0.00 77 1014.1
20260510004557 64 233 1.0 7.0 0.00 0.00 0.00 77 1014.1
20260510004051 64 360 2.0 7.0 0.00 0.00 0.00 76 1014.1
20260510003553 64 211 2.0 7.0 0.00 0.00 0.00 76 1014.1
20260510003053 65 238 1.0 8.0 0.00 0.00 0.00 76 1014.1
20260510002555 65 211 1.0 8.0 0.00 0.00 0.00 75 1014.1
20260510002051 65 227 3.0 8.0 0.00 0.00 0.00 75 1014.2
20260510001606 65 213 2.0 8.0 0.00 0.00 0.00 75 1014.1
20260510001052 65 237 2.0 8.0 0.00 0.00 0.00 75 1014.1
20260510000558 65 203 2.0 10.0 0.00 0.00 0.00 74 1014.2
20260510000056 65 272 3.0 10.0 0.00 0.00 0.00 74 1014.2
20260509235554 66 360 3.0 9.0 0.00 0.00 0.00 73 1014.2
20260509235052 67 250 1.0 5.0 0.00 0.00 0.00 74 1014.2
20260509234552 66 283 0.0 9.0 0.00 0.00 0.00 74 1014.2
20260509234053 66 248 2.0 9.0 0.00 0.00 0.00 74 1014.3
20260509233553 66 184 2.0 11.0 0.00 0.00 0.00 74 1014.2
20260509233053 66 229 4.0 11.0 0.00 0.00 0.00 73 1014.4
20260509232552 66 261 2.0 11.0 0.00 0.00 0.00 73 1014.4
20260509232052 66 200 4.0 11.0 0.00 0.00 0.00 73 1014.4
20260509231556 67 240 2.0 9.0 0.00 0.00 0.00 72 1014.4
20260509231050 67 360 2.0 9.0 0.00 0.00 0.00 73 1014.4
20260509230555 67 229 3.0 8.0 0.00 0.00 0.00 72 1014.4
20260509230055 67 222 3.0 8.0 0.00 0.00 0.00 72 1014.4
20260509225555 68 236 1.0 8.0 0.00 0.00 0.00 72 1014.4
20260509225051 67 249 3.0 8.0 0.00 0.00 0.00 72 1014.4
20260509224552 68 255 3.0 9.0 0.00 0.00 0.00 71 1014.6
20260509224054 68 0 3.0 9.0 0.00 0.00 0.00 70 1014.6
20260509223555 68 175 2.0 7.0 0.00 0.00 0.00 71 1014.7
20260509223057 68 236 2.0 7.0 0.00 0.00 0.00 72 1014.7
20260509222556 68 340 1.0 8.0 0.00 0.00 0.00 73 1014.9
20260509222054 67 192 3.0 8.0 0.00 0.00 0.00 71 1014.9
20260509221552 68 270 3.0 8.0 0.00 0.00 0.00 72 1015.0
20260509221052 67 250 3.0 8.0 0.00 0.00 0.00 71 1015.0
20260509220552 67 236 3.0 8.0 0.00 0.00 0.00 71 1015.1
20260509220056 68 213 2.0 8.0 0.00 0.00 0.00 71 1015.0
20260509215555 67 239 2.0 8.0 0.00 0.00 0.00 72 1015.2
20260509215052 67 238 3.0 8.0 0.00 0.00 0.00 72 1015.1
20260509214555 67 157 2.0 7.0 0.00 0.00 0.00 73 1015.1
20260509214054 67 0 2.0 7.0 0.00 0.00 0.00 73 1015.1
20260509213551 66 204 1.0 8.0 0.00 0.00 0.00 73 1015.3
20260509213105 66 217 3.0 8.0 0.00 0.00 0.00 73 1015.3
20260509212555 66 242 3.0 8.0 0.00 0.00 0.00 73 1015.4
20260509212052 66 250 3.0 11.0 0.00 0.00 0.00 75 1015.5
20260509211601 65 217 4.0 11.0 0.00 0.00 0.00 74 1015.5
20260509211052 66 243 2.0 7.0 0.00 0.00 0.00 76 1015.5
20260509210551 65 238 2.0 9.0 0.00 0.00 0.00 77 1015.6
20260509210056 65 249 3.0 9.0 0.00 0.00 0.00 76 1015.6
20260509205554 65 233 3.0 9.0 0.00 0.00 0.00 76 1015.6
20260509205054 65 240 3.0 9.0 0.00 0.00 0.00 77 1015.6
20260509204601 65 280 3.0 8.0 0.00 0.00 0.00 76 1015.6
20260509204051 65 259 3.0 8.0 0.00 0.00 0.00 75 1015.7
20260509203551 65 225 2.0 8.0 0.00 0.00 0.00 75 1015.7
20260509203101 65 232 2.0 9.0 0.00 0.00 0.00 75 1015.7
20260509202552 65 239 2.0 9.0 0.00 0.00 0.00 75 1015.7
20260509202053 65 242 2.0 9.0 0.00 0.00 0.00 75 1015.7
20260509201555 65 228 2.0 8.0 0.00 0.00 0.00 76 1015.7
20260509201051 65 250 3.0 8.0 0.00 0.00 0.00 74 1015.8
20260509200554 66 227 3.0 8.0 0.00 0.00 0.00 74 1015.9
20260509200057 66 0 1.0 8.0 0.00 0.00 0.00 73 1015.8
20260509195552 66 238 2.0 8.0 0.00 0.00 0.00 72 1015.7
20260509195055 66 168 1.0 6.0 0.00 0.00 0.00 73 1015.8
20260509194601 65 266 2.0 10.0 0.00 0.00 0.00 74 1015.8
20260509194052 65 219 2.0 10.0 0.00 0.00 0.00 74 1015.8
20260509193552 65 0 3.0 9.0 0.00 0.00 0.00 73 1015.8
20260509193056 65 302 2.0 7.0 0.00 0.00 0.00 74 1015.9
20260509192551 66 270 2.0 9.0 0.00 0.00 0.00 73 1015.9
20260509192054 65 0 2.0 9.0 0.00 0.00 0.00 72 1016.1
20260509191606 66 272 2.0 9.0 0.00 0.00 0.00 71 1016.0
20260509191051 66 197 2.0 10.0 0.00 0.00 0.00 72 1016.1
20260509190557 66 202 1.0 10.0 0.00 0.00 0.00 72 1016.0
20260509190055 65 215 4.0 10.0 0.00 0.00 0.00 72 1016.0
20260509185552 65 214 3.0 10.0 0.00 0.00 0.00 72 1016.1
20260509185056 65 209 2.0 10.0 0.00 0.00 0.00 74 1016.1
20260509184604 65 0 3.0 8.0 0.00 0.00 0.00 74 1016.0
20260509184051 65 219 3.0 9.0 0.00 0.00 0.00 73 1016.1
20260509183555 65 222 2.0 9.0 0.00 0.00 0.00 74 1016.1
20260509183059 64 250 2.0 9.0 0.00 0.00 0.00 74 1016.1
20260509182552 65 360 4.0 10.0 0.00 0.00 0.00 73 1016.1
20260509182058 65 238 5.0 10.0 0.00 0.00 0.00 73 1016.1
20260509181601 64 193 2.0 9.0 0.00 0.00 0.00 75 1016.2
20260509181054 64 213 2.0 9.0 0.00 0.00 0.00 76 1016.2
20260509180553 63 236 3.0 9.0 0.00 0.00 0.00 76 1016.2
20260509180112 63 236 4.0 10.0 0.00 0.00 0.00 75 1016.3
20260509175554 63 217 4.0 10.0 0.00 0.00 0.00 75 1016.2
20260509175051 63 165 2.0 9.0 0.00 0.00 0.00 77 1016.3
20260509174553 62 138 4.0 9.0 0.00 0.00 0.00 77 1016.4
20260509174053 62 228 4.0 9.0 0.00 0.00 0.00 77 1016.3
20260509173554 62 275 4.0 9.0 0.00 0.00 0.00 76 1016.3
20260509173105 62 360 3.0 9.0 0.00 0.00 0.00 77 1016.3
20260509172556 62 177 2.0 9.0 0.00 0.00 0.00 77 1016.3
20260509172057 62 0 5.0 9.0 0.00 0.00 0.00 77 1016.3
20260509171553 62 155 2.0 9.0 0.00 0.00 0.00 79 1016.3
20260509171056 61 248 2.0 9.0 0.00 0.00 0.00 79 1016.3
20260509170557 61 115 3.0 9.0 0.00 0.00 0.00 79 1016.3
20260509170056 61 174 3.0 10.0 0.00 0.00 0.00 80 1016.3
20260509165556 60 86 3.0 10.0 0.00 0.00 0.00 80 1016.3
20260509165056 60 167 3.0 10.0 0.00 0.00 0.00 80 1016.4
20260509164555 60 167 3.0 10.0 0.00 0.00 0.00 81 1016.5
20260509164055 60 184 5.0 9.0 0.00 0.00 0.00 81 1016.5
20260509163556 59 155 3.0 9.0 0.00 0.00 0.00 82 1016.5
20260509163059 59 141 2.0 7.0 0.00 0.00 0.00 82 1016.5
20260509162557 59 158 1.0 8.0 0.00 0.00 0.00 83 1016.3
20260509162057 58 186 1.0 8.0 0.00 0.00 0.00 84 1016.4
20260509161603 58 360 2.0 7.0 0.00 0.00 0.00 84 1016.4
20260509161053 58 225 3.0 8.0 0.00 0.00 0.00 85 1016.4
20260509160553 57 211 2.0 8.0 0.00 0.00 0.00 85 1016.4
20260509155556 57 360 2.0 7.0 0.00 0.00 0.00 86 1016.4
20260509155056 57 194 3.0 7.0 0.00 0.00 0.00 85 1016.5
20260509154559 57 178 2.0 9.0 0.00 0.00 0.00 87 1016.5
20260509154053 56 160 3.0 9.0 0.00 0.00 0.00 86 1016.4
20260509153556 57 182 3.0 9.0 0.00 0.00 0.00 86 1016.5
20260509153102 57 169 2.0 9.0 0.00 0.00 0.00 87 1016.4
20260509152555 56 156 2.0 8.0 0.00 0.00 0.00 88 1016.4
20260509152057 56 173 3.0 8.0 0.00 0.00 0.00 89 1016.4
20260509151555 55 132 2.0 8.0 0.00 0.00 0.00 88 1016.4
20260509151053 55 212 3.0 8.0 0.00 0.00 0.00 89 1016.3
20260509150554 55 134 3.0 8.0 0.00 0.00 0.00 89 1016.2
20260509150056 55 119 3.0 6.0 0.00 0.00 0.00 90 1016.3
20260509145554 54 94 1.0 6.0 0.00 0.00 0.00 90 1016.3
20260509145056 54 142 3.0 6.0 0.00 0.00 0.00 90 1016.3
20260509144555 54 360 1.0 5.0 0.00 0.00 0.00 91 1016.3
20260509144053 54 113 1.0 5.0 0.00 0.00 0.00 90 1016.2
20260509143556 54 180 2.0 6.0 0.00 0.00 0.00 90 1016.3
20260509143058 54 0 2.0 6.0 0.00 0.00 0.00 91 1016.3
20260509142553 54 165 2.0 7.0 0.00 0.00 0.00 91 1016.2
20260509142053 54 0 2.0 9.0 0.00 0.00 0.00 91 1016.2
20260509141556 54 203 4.0 9.0 0.00 0.00 0.00 91 1016.2
20260509141053 54 156 3.0 7.0 0.00 0.00 0.00 91 1016.1
20260509140554 54 146 2.0 7.0 0.00 0.00 0.00 91 1016.0
20260509140106 53 148 3.0 8.0 0.00 0.00 0.00 92 1016.0
20260509135553 53 136 2.0 8.0 0.00 0.00 0.00 92 1016.1
20260509135055 53 155 4.0 8.0 0.00 0.00 0.00 92 1016.1
20260509134554 53 154 3.0 7.0 0.00 0.00 0.00 92 1016.1
20260509134055 53 153 4.0 8.0 0.00 0.00 0.00 92 1016.0
20260509133554 53 360 2.0 8.0 0.00 0.00 0.00 92 1015.9
20260509133057 53 144 3.0 7.0 0.00 0.00 0.00 92 1016.0
20260509132552 53 179 2.0 9.0 0.00 0.00 0.00 92 1015.9
20260509132052 53 196 3.0 9.0 0.00 0.00 0.00 92 1016.1
20260509131555 53 209 4.0 9.0 0.00 0.00 0.00 92 1016.0
20260509131052 53 360 2.0 7.0 0.00 0.00 0.00 92 1016.0
20260509130552 53 155 3.0 8.0 0.00 0.00 0.00 92 1015.9
20260509130052 53 131 3.0 9.0 0.00 0.00 0.00 92 1015.9
20260509125553 53 166 4.0 9.0 0.00 0.00 0.00 92 1015.8
20260509125054 53 169 4.0 9.0 0.00 0.00 0.00 92 1015.8
20260509124556 53 151 4.0 12.0 0.00 0.00 0.00 92 1015.8
20260509124053 53 173 5.0 13.0 0.00 0.00 0.00 92 1015.8
20260509123552 53 146 5.0 13.0 0.00 0.00 0.00 91 1015.9
20260509123053 53 193 5.0 11.0 0.00 0.00 0.00 91 1015.8
20260509122552 53 163 5.0 10.0 0.00 0.00 0.00 91 1015.8
20260509122055 53 194 4.0 11.0 0.00 0.00 0.00 91 1015.8
20260509121554 53 184 5.0 11.0 0.00 0.00 0.00 91 1015.7
20260509121056 53 213 5.0 11.0 0.00 0.00 0.00 91 1015.8
20260509120552 54 234 4.0 11.0 0.00 0.00 0.00 91 1015.8
20260509120100 54 182 5.0 11.0 0.00 0.00 0.00 91 1015.7
20260509115551 54 194 5.0 11.0 0.00 0.00 0.00 91 1015.8
20260509115054 54 197 4.0 12.0 0.00 0.00 0.00 91 1015.9